GW4764 Weather Reports


time (UTC)temp
C
wind
direction
speed
KPH
gust
KPH
rain 1hr
cm
rain 24hr
cm
rain mn
cm
humidity
%
barometer
mb
20260903073010 21 255 0.0 3.2 0.20 1.96 0.81 92 1014.2
20260903071509 21 271 0.0 3.2 0.28 1.96 0.81 93 1014.5
20260903070015 21 230 0.0 12.9 0.25 1.93 0.79 93 1014.0
20260903064523 21 267 0.0 3.2 0.10 1.75 0.61 93 1014.7
20260903063004 21 194 0.0 3.2 0.36 1.75 0.61 93 1014.0
20260903061516 21 218 0.0 3.2 0.53 1.68 0.53 93 1014.1
20260903060012 21 127 0.0 3.2 0.53 1.68 0.53 93 1014.2
20260903054518 21 318 0.0 3.2 0.51 1.65 0.51 93 1014.8
20260903053027 20 132 0.0 3.2 0.25 1.40 0.25 92 1014.3
20260903051509 20 115 0.0 0.0 0.00 1.14 0.00 91 1014.1
20260903050013 20 115 0.0 0.0 0.00 1.14 0.00 91 1014.2
20260903044518 21 115 0.0 0.0 0.00 1.14 0.00 92 1014.1
20260903043024 21 115 0.0 0.0 0.00 1.14 0.00 92 1014.0
20260903041529 21 115 0.0 0.0 0.03 1.14 0.00 91 1013.9
20260903040009 21 115 0.0 0.0 0.03 1.14 0.00 91 1013.8
20260903034522 21 40 0.0 3.2 0.13 1.14 1.14 90 1013.9
20260903033023 21 12 0.0 3.2 0.46 1.14 1.14 89 1014.1
20260903031527 21 123 0.0 3.2 0.81 1.12 1.12 89 1013.7
20260903030032 21 273 1.6 20.9 1.09 1.12 1.12 86 1013.4
20260903024533 22 53 3.2 16.1 0.99 1.02 1.02 87 1013.0
20260903023016 23 249 9.7 20.9 0.66 0.69 0.69 90 1013.8
20260903021529 23 202 0.0 14.5 0.28 0.30 0.30 91 1012.7
20260903020027 23 220 0.0 0.0 0.00 0.03 0.03 91 1013.7
20260903014533 23 220 0.0 0.0 0.00 0.03 0.03 90 1013.6
20260903013016 23 220 0.0 0.0 0.00 0.03 0.03 89 1013.5
20260903011504 24 220 0.0 0.0 0.00 0.03 0.03 88 1013.4
20260903010007 24 220 0.0 0.0 0.00 0.03 0.03 88 1013.2
20260903004511 25 220 0.0 0.0 0.03 0.03 0.03 86 1013.0
20260903003012 25 220 0.0 0.0 0.03 0.03 0.03 84 1012.7
20260903001520 26 220 0.0 0.0 0.03 0.03 0.03 83 1012.6
20260903000010 27 220 0.0 1.6 0.03 0.03 0.03 81 1012.9
20260902234510 27 220 0.0 3.2 0.00 0.00 0.00 76 1013.1
20260902233013 28 220 0.0 0.0 0.00 0.00 0.00 74 1012.9
20260902231534 29 220 0.0 3.2 0.00 0.00 0.00 71 1012.7
20260902230032 30 220 0.0 3.2 0.00 0.00 0.00 68 1012.6
20260902224508 31 217 0.0 3.2 0.00 0.00 0.00 62 1012.8
20260902223011 31 269 4.8 14.5 0.00 0.00 0.00 62 1012.8
20260902221520 31 261 8.0 14.5 0.00 0.00 0.00 59 1012.7
20260902220024 31 184 0.0 12.9 0.00 0.00 0.00 62 1012.4
20260902214506 31 250 4.8 11.3 0.00 0.00 0.00 62 1012.4
20260902213010 32 214 3.2 11.3 0.00 0.00 0.00 62 1012.6
20260902211512 32 211 4.8 8.0 0.00 0.00 0.00 59 1012.5
20260902210019 32 191 4.8 12.9 0.00 0.00 0.00 59 1012.7
20260902204525 32 213 6.4 14.5 0.00 0.00 0.00 60 1012.9
20260902203008 32 265 6.4 12.9 0.00 0.00 0.00 59 1013.1
20260902201511 32 190 3.2 14.5 0.00 0.00 0.00 60 1013.5
20260902200016 32 259 1.6 12.9 0.00 0.00 0.00 64 1013.4
20260902194527 31 242 3.2 12.9 0.00 0.00 0.00 62 1013.8
20260902193030 32 182 6.4 22.5 0.00 0.00 0.00 60 1014.1
20260902191509 32 236 1.6 12.9 0.00 0.00 0.00 62 1014.2
20260902190012 32 238 6.4 17.7 0.00 0.00 0.00 59 1014.2
20260902184519 32 275 1.6 14.5 0.00 0.00 0.00 60 1014.2
20260902183029 32 274 3.2 14.5 0.00 0.00 0.00 60 1014.3
20260902181530 32 269 4.8 16.1 0.00 0.00 0.00 62 1014.1
20260902180014 31 302 3.2 11.3 0.00 0.00 0.00 64 1014.2
20260902174518 31 180 1.6 16.1 0.00 0.00 0.00 64 1014.3
20260902173024 31 213 1.6 9.7 0.00 0.00 0.00 67 1014.7
20260902171529 31 273 4.8 11.3 0.00 0.00 0.00 64 1015.0
20260902170033 31 226 3.2 6.4 0.00 0.00 0.00 68 1015.1
20260902164518 31 249 4.8 12.9 0.00 0.00 0.00 66 1015.4
20260902163024 31 196 3.2 12.9 0.00 0.00 0.00 69 1015.5
20260902161511 31 321 3.2 16.1 0.00 0.00 0.00 66 1015.5
20260902160010 31 235 6.4 14.5 0.00 0.00 0.00 68 1015.7
20260902154524 30 310 3.2 11.3 0.00 0.00 0.00 69 1015.2
20260902153019 30 243 3.2 11.3 0.00 0.00 0.00 69 1015.1
20260902151503 30 164 3.2 8.0 0.00 0.00 0.00 70 1015.1
20260902150007 30 263 1.6 9.7 0.00 0.00 0.00 71 1015.1
20260902144526 29 246 1.6 4.8 0.00 0.00 0.00 74 1015.2
20260902143018 28 307 1.6 8.0 0.00 0.00 0.00 75 1015.1
20260902141526 28 269 3.2 8.0 0.00 0.00 0.00 76 1015.1
20260902140008 27 163 0.0 8.0 0.00 0.00 0.00 79 1015.1
20260902134522 27 334 0.0 3.2 0.00 0.00 0.00 80 1015.2
20260902133016 26 284 1.6 8.0 0.00 0.00 0.00 83 1015.2
20260902131519 25 220 0.0 3.2 0.00 0.00 0.00 84 1015.4
20260902130004 25 260 1.6 6.4 0.00 0.00 0.00 85 1015.4
20260902124508 25 220 3.2 6.4 0.00 0.00 0.00 86 1015.4
20260902123014 23 179 1.6 4.8 0.00 0.00 0.00 89 1015.4
20260902121518 23 243 1.6 3.2 0.00 0.00 0.00 90 1015.5
20260902120026 23 186 1.6 3.2 0.00 0.00 0.00 90 1015.3
20260902114506 23 224 0.0 3.2 0.00 0.00 0.00 89 1015.3
20260902113018 23 213 1.6 4.8 0.00 0.00 0.00 89 1015.3
20260902111521 23 265 0.0 8.0 0.00 0.00 0.00 89 1015.4
20260902110023 23 246 1.6 6.4 0.00 0.00 0.00 90 1015.3
20260902104527 23 229 0.0 3.2 0.00 0.00 0.00 90 1015.6
20260902103018 23 290 0.0 4.8 0.00 0.00 0.00 91 1015.7
20260902101516 23 315 0.0 3.2 0.00 0.00 0.00 92 1015.7
20260902100022 23 293 0.0 3.2 0.00 0.00 0.00 92 1015.1
20260902094528 23 206 1.6 4.8 0.00 0.00 0.00 93 1015.0
20260902093029 23 236 0.0 3.2 0.00 0.00 0.00 94 1014.9
20260902091512 22 272 1.6 9.7 0.00 0.00 0.00 94 1015.0
20260902090020 22 229 0.0 3.2 0.00 0.00 0.00 93 1014.8
20260902084526 22 229 0.0 4.8 0.00 0.00 0.00 94 1014.8
20260902083028 22 296 0.0 3.2 0.00 0.00 0.00 94 1014.9
20260902081531 21 284 0.0 3.2 0.00 0.00 0.00 93 1014.9
20260902080014 21 284 0.0 3.2 0.00 0.00 0.00 94 1014.8
20260902074522 21 284 0.0 3.2 0.00 0.00 0.00 94 1014.9